Location: Heiligenberg
(48.5381°N, 7.3897°E)
Time: 19:27:20
(UTC+00:00)

CZ-4 R/B - Pass Details

Date: 26 May 2022
Orbit: 680 x 752 km, 98.5° (Epoch: 02 July)

Event Time Altitude Azimuth Distance (km) Brightness Sun altitude
Rises 01:54:49 0° 9° (N) 3,067 8.4 -13.0°
Reaches altitude 10° 01:57:10 10° 2° (N) 2,141 7.2 -12.8°
Maximum altitude 02:01:33 42° 292° (WNW) 970 4.4 -12.3°
Enters shadow 02:04:48 17° 228° (SW) 1,712 5.2 -12.0°
